Find GPS IIR-12

NORAD ID: 28361 Int'l Des: 2004-023 Owner: AFSMC Country: US Constellation: GPS operational
MEOGNSS

实时位置

正在加载3D地球...

关于 GPS IIR-12

正在加载描述...

即将过境

Passes for default location (London). Set your location on the main map for personalized predictions.

高度历史

Loading altitude history...

两行轨道根数

1 28361U 04023A 26105.57137476 .00000049 00000-0 00000+0 0 9995
2 28361 54.8217 89.2391 0160377 300.0040 243.1935 2.00553947159784
Epoch: Apr 15, 2026 • Age: 19 hours

当前状态

高度 20139.3 km
速度 3.88 km/s
星下点 20.25°N, 134.85°E
发射日期 Jun 23, 2004
运行时间 21.8 years
类型 navigation

技术详情

分类 Payload
质量 1077.00 kg
干质量 910.00 kg
总质量 2032.00 kg
长度 1.50 m
直径 1.90 m
跨度 19.30 m
形状 Box + 2 Pan
制造商 LMMS
平台类型 Series 4000
阶段状态 In Orbit
所有者/国家 AFSMC/US

Most Searched